Время (UTC), дата Ветер
(°,м/с) 
Видим.   Явления Облачность Т
(°С)
Тd
(°С)
f(%) Тe
(°С)
Pmin
(гПа)
dP
(гПа)
Po
(мм)
O2
(г/м3)
Тmin Tmax R s Состояние
почвы
00 12.02.15 100 (В) 0300 м  слаб. переохл. морось (гололёд){туман} [диам. гололёда 6 мм]  ?/?  
-2.5 -3.2 95 -6  1020.6  0.7  723  294           
03 12.02.15 090 (В) 0300 м  туман{морось}  ?/?  
-2.7 -3.3 96 -7  1021.5  0.7  724  295  -2.7    0.0     
06 12.02.15 090 (В) 0300 м  туман{морось} [диам. гололёда 15 мм]  ?/?  
-2 -2.7 95 -5  1022.9  1.4  725  295           
09 12.02.15 090 (В) 8-10{13}  0700 м  туман [диам. гололёда 18 мм]  ?/?  
-1.7 -2.3 96 -6  1022.8  725  294           
12 12.02.15 090 (В) 8-10{11}  0200 м  туман [диам. гололёда 19 мм]  ?/?  
-1.7 -2.3 96 -6  1023.2  0.4  725  294           
15 12.02.15 070 (В) 5{10}  0200 м  туман [диам. гололёда 21 мм]  ?/?  
-2.3 -2.9 96 -6  1024.4  1.1  726  295    -1.5       
18 12.02.15 100 (В) 4000 м  дымка{туман} [диам. гололёда 22 мм]  10/10 120 м 
[St]
-3.3 -4 95 -6  1025.3  0.6  727  297           
21 12.02.15 090 (В) 1800 м  дымка{снег} [диам. гололёда 22 мм]  10/10 100 м 
[St]
-2.5 -3.2 95 -6  1024.9  0.6  726  296           
00 13.02.15 090 (В) 0200 м  туман [диам. гололёда 23 мм]  ?/?  
-1.5 -2.1 96 -5  1024.6  0.1  726  294           
03 13.02.15 110 (В) 0200 м  туман [диам. гололёда 25 мм]  ?/?  
-2.1 -2.7 96 -5  1024.9  0.1  726  295  -3.4    0.0     
06 13.02.15 100 (В) 1000 м  дымка{туман} [диам. гололёда 26 мм]  10/10 120 м 
[St]
-1.7 -2.3 96 -4  1025.8  0.9  727  295           
09 13.02.15 080 (В) 0800 м  туман [диам. гололёда 24 мм]  ?/?  
-1.1 -1.6 96 -4  1025.6  0.1  727  294           
12 13.02.15 090 (В) 10 км  {туман}  10/8 150 м средняя 
[St|Ac und]
-0.1 -0.6 97 -4  1024.7  -0.6  727  293           
15 13.02.15 100 (В) 4000 м  дымка  10/10 100 м 
[St]
-0.5 -1 96 -4  1025.2  0.4  727  293    -0       
18 13.02.15 100 (В) 0800 м  туман [диам. гололёда 0 мм]  ?/?  
-1.2 -1.7 96 -5  1025.5  0.1  727  294           
21 13.02.15 110 (В) 10 км  {туман} [диам. гололёда 1 мм]  10/8 240 м 
[St]
-1.4 -1.9 96 -4  1025  -0.5  727  294           
00 14.02.15 130 (ЮВ) 1500 м  дымка{туман} [диам. гололёда 1 мм]  10/10 100 м 
[St]
-1.4 -1.9 96 -4  1024.5  -0.5  726  294           
03 14.02.15 110 (В) 0400 м  переохл. туман  ?/?  
-1.7 -2.3 96 -5  1024.6  0.1  726  295  -1.8         
06 14.02.15 100 (В) 0200 м  переохл. туман [диам. сложн. отлож. 3 мм]  ?/?  
-1.7 -2.3 96 -4  1025.6  727  295  -1.8         
09 14.02.15 140 (ЮВ) 4000 м  дымка{туман} [диам. сложн. отлож. 3 мм]  10/10 150 м 
[St]
-0.1 -0.7 96 -2  1025.7  0.4  727  293           
12 14.02.15 100 (В) 6{10}  20000 м  {туман}  6/4 600 м средняя 
[Sc|Ac trans]
+3.5 -4.6 55 +1  1023.9  -1  727  289           
15 14.02.15 100 (В) 20000 м    3/0 средняя 
[Ac trans]
-1.4 -3.4 86 -4  1025.4  0.5  727  295    +3.7       
18 14.02.15 130 (ЮВ) 20000 м    ясно 
-3.4 -4.2 94 -6  1025.6  -0.3  727  297           
21 14.02.15 130 (ЮВ) 4000 м  дымка  ясно 
-4.5 -5.2 95 -6  1025.5  -0.3  726  298           
00 15.02.15 150 (ЮВ) 4000 м  дымка [диам. изморози 2 мм]  ясно 
-5.2 -6.1 93 -8  1025.1  -0.5  726  299           
03 15.02.15 130 (ЮВ) 20000 м  [диам. изморози 7 мм]  ясно 
-6.1 -7.1 93 -9  1024.6  -0.7  726  300  -6.1         
06 15.02.15 140 (ЮВ) 0200 м  переохл. туман [диам. изморози 10 мм]  ?/?  
-3.1 -3.8 95 -4  1023.9  726  296  -6.9         
09 15.02.15 120 (ЮВ) 1000 м  дымка{туман} [диам. изморози 11 мм]  8/8 100 м 
[St]
+0.5 -0.1 96 1021.8  -1.1  725  291           
12 15.02.15 070 (В) 20000 м  {туман}  5/1 300 м верхняя 
[St|Ci fib]
+4.1 -0.4 72 +4  1019.9  -1.2  724  287           
15 15.02.15 040 (СВ) 20000 м    5/0 верхняя 
[Ci fib]
+0.7 -2.3 80 1020.3  -0.2  724  291    +4.4       
18 15.02.15 210 (ЮЗ) 20000 м    ясно 
-2.3 -3.1 94 -3  1020.1  -0.8  723  294           
21 15.02.15 240 (ЮЗ) 20000 м    ясно 
-1.5 -2.9 90 -3  1019.1  -0.8  722  293           
00 16.02.15 270 (З) 20000 м    ясно 
+0.2 -3 79 -3  1017.8  -0.9  722  291           
03 16.02.15 270 (З) 20000 м    ясно 
-1.1 -2.8 88 -3  1017.3  -0.7  721  292  -3.9         
06 16.02.15 010 (С) 0300 м  переохл. туман [диам. изморози 0 мм]  ?/?  
-4.2 -4.9 95 -5  1018.6  0.6  722  296  -4.2         
09 16.02.15 310 (СЗ) 20000 м  {туман} [диам. изморози 1 мм]  10/3 200 м средняя 
[St|Ac und]
-1.5 -3.3 88 -3  1017.3  -0.7  721  292           
12 16.02.15 350 (С) 0200 м  слаб. ливневой снег{туман}  ?/?  
-3.7 -4.4 95 -6  1017.8  721  295           
15 16.02.15 360 (С) 1500 м  ливневой снег  10/8 150 м кучево-дожд., средняя 
[Cb cap|Ac und]
-4.9 -5.8 93 -7  1019.3  1.1  722  297    -0.7     
18 16.02.15 020 (С) 1600 м  ливневой снег  10/8 120 м кучево-дожд., средняя 
[Cb cap|Ac und]
-5.6 -6.5 93 -9  1020.3  0.8  723  298           
21 16.02.15 040 (СВ) 1500 м  ливневой снег  10/8 120 м кучево-дожд., средняя 
[Cb cap|Ac und]
-6 -6.9 93 -10  1021.1  0.7  723  299           
00 17.02.15 050 (СВ) 6{10}  1300 м  ливневой снег  10/8 120 м кучево-дожд., средняя 
[Cb cap|Ac und]
-6.9 -7.9 92 -12  1022.6  1.2  724  300           
03 17.02.15 050 (СВ) 1400 м  ливневой снег  10/8 100 м кучево-дожд., средняя 
[Cb cap|Ac und]
-8.4 -9.6 91 -14  1024.4  1.3  725  302         
06 17.02.15 050 (СВ) 7{10}  1500 м  ливневой снег  10/6 120 м кучево-дожд., средняя 
[Cb cap|Ac cuf]
-9.5 -10.8 90 -15  1026.8  2.1  727  304  -9.5         
09 17.02.15 070 (В) 7{10}  4000 м  слаб. снег{ливн. осадки}  8/3 200 м 
[Sc diur, vesp]
-8.8 -10.3 89 -14  1028.2  1.5  728  304           
12 17.02.15 060 (СВ) 7{10}  10 км  позёмок{ливн. осадки, снег}  8/5 210 м средняя 
[St|Ac trans]
-9.3 -10.9 88 -15  1029  0.6  728  305           
15 17.02.15 060 (СВ) 6{10}  3000 м  снег  10/10 210 м 
[St|Ns]
-10.4 -11.8 90 -16  1031.5  2.1  730  307    -8.3     
18 17.02.15 070 (В) 3000 м  снег  10/10 150 м 
[Frnb|Ns]
-11.3 -12.7 90 -17  1033  1.2  731  308           
21 17.02.15 080 (В) 3000 м  снег  10/10 180 м 
[St|Ns]
-11.1 -12.6 89 -16  1033.9  0.9  731  308           
00 18.02.15 100 (В) 4000 м  слаб. снег  10/10 300 м 
[Ns]
-10.6 -12 89 -17  1033.8  731  308           
03 18.02.15 100 (В) 10 км  {снег}  10/6 300 м средняя 
[Sc|Ac und]
-11.1 -12.6 89 -15  1034  0.1  731  308  -11.3    0.7     
06 18.02.15 090 (В) 10 км  {снег}  4/4 600 м 
[Sc]
-12.6 -14.3 87 -18  1035  0.6  732  310  -13.4         
09 18.02.15 070 (В) 20000 м    1/1 600 м 
[Sc]
-10.7 -12.3 88 -16  1034.1  -0.4  732  308           
12 18.02.15 070 (В) 20000 м    1/0 средняя 
[Ac trans]
-9.3 -13.2 73 -14  1032.7  -1.1  731  306           
15 18.02.15 070 (В) 20000 м    3/0 средняя 
[Ac trans]
-13.1 -15.6 82 -18  1032.2  -1.3  730  310    -9.1       
18 18.02.15 100 (В) 20000 м    3/0 средняя 
[Ac trans]
-15 -17.1 84 -20  1031.7  -0.8  729  312           
21 18.02.15 110 (В) 20000 м    ясно 
-16.1 -18.2 84 -18  1029.7  -2.2  728  313           
00 19.02.15 110 (В) 10 км  слаб. снег  10/10 150 м 
[Frnb|Ns]
-13.2 -15 86 -18  1027.6  -1.3  727  309           
03 19.02.15 140 (ЮВ) 10 км  слаб. снег  10/10 300 м 
[Frnb|Ns]
-13.6 -15.5 86 -18  1024.9  -2.6  725  309  -16.7    0.0     
06 19.02.15 130 (ЮВ) 10 км  {снег} [диам. изморози 8 мм]  3/0 верхняя 
[Ci fib]
-11.1 -12.8 87 -13  1023  -1.3  724  305           
09 19.02.15 130 (ЮВ) 10 км  [диам. изморози 8 мм]  ясно 
-8.6 -11.8 78 -11  1020.5  -1.8  722  302           
12 19.02.15 060 (СВ) 10 км    ясно 
-5.3 -10.9 65 -5  1018.4  -1.3  721  297           
15 19.02.15 290 (З) 10 км    8/0 средняя, верхняя 
[Ac trans|Ci fib]
-8.9 -11.3 83 -13  1018.4  -0.7  721  301    -5.3       
18 19.02.15 280 (З) 20000 м    8/0 средняя 
[Ac trans]
-10 -11.9 86 -13  1019.5  0.7  721  303           
21 19.02.15 270 (З) 20000 м    9/3 600 м средняя 
[Sc|Ac trans]
-8.2 -12.9 69 -10  1018.8  -0.3  721  301           
00 20.02.15 270 (З) 20000 м    10/8 800 м средняя 
[Sc|Ac und]
-7.5 -13.3 63 -10  1019.3  0.7  722  300           
03 20.02.15 290 (З) 20000 м    10/8 600 м средняя 
[Sc|Ac und]
-7.8 -11.5 75 -11  1019.7  0.3  722  300  -10.8      неравномерный
сухой снег
100% 
06 20.02.15 030 (СВ) 2000 м  слаб. ливневой снег  10/8 600 м кучево-дожд., средняя 
[Cb cap|Ac und]
-7.5 -10.4 80 -7  1021.1  1.4  723  300           
09 20.02.15 040 (СВ) 10 км  {ливн. осадки}  1/1 600 м 
[Sc]
-5.8 -9.8 73 -8  1020.8  0.1  723  299           
12 20.02.15 070 (В) 10 км  {ливн. осадки}  6/6 500 м 
[Sc]
-5.7 -9.3 76 -9  1021.5  0.6  723  299           
15 20.02.15 080 (В) 10 км  в посл. час морось{снег}  8/8 540 м 
[Sc]
-8.3 -10.1 87 -13  1023.5  1.3  724  302    -5.5  0.0     
18 20.02.15 100 (В) 20000 м  {снег}  3/3 300 м 
[Sc]
-10.7 -12.3 88 -15  1025.1  725  305           
21 20.02.15 120 (ЮВ) 20000 м    ясно 
-11.4 -12.9 89 -16  1025.4  0.1  725  306           
00 21.02.15 090 (В) 20000 м    10/0 средняя 
[Ac und]
-8.5 -9.9 90 -12  1024.5  -0.2  725  302           
03 21.02.15 110 (В) 10 км  в посл. час морось{снег} [диам. изморози 2 мм]  10/10 270 м 
[St]
-6.1 -7.4 90 -11  1024.1  0.2  725  300  -11.9    0.0  равномерный
сухой снег
100% 
06 21.02.15 110 (В) 7{10}  4000 м  дымка  10/10 120 м 
[St]
-5.5 -6.5 93 -10  1025.5  1.5  726  299           
09 21.02.15 120 (ЮВ) 8-11{11}  10 км    10/8 240 м средняя 
[St|Ac und]
-3.9 -5.8 87 -9  1025.7  0.5  727  298           
12 21.02.15 110 (В) 8{12}  20000 м    8/8 300 м 
[Sc]
-2.5 -5.1 82 -7  1025  -0.4  726  296           
15 21.02.15 110 (В) 7{11}  20000 м    10/8 450 м средняя 
[Sc|Ac und]
-3.9 -5.8 87 -9  1026.4  727  298    -2.1  0.0     
18 21.02.15 120 (ЮВ) 20000 м    3/0 средняя 
[Ac trans]
-6 -8 86 -10  1027.9  728  301           
21 21.02.15 130 (ЮВ) 20000 м    4/0 средняя 
[Ac trans]
-5.1 -7 87 -10  1027.2  -0.5  728  299           
00 22.02.15 130 (ЮВ) 20000 м    ясно 
-6.2 -8 87 -10  1027.6  0.2  728  301           
03 22.02.15 120 (ЮВ) 20000 м    ясно 
-6.8 -9.1 84 -11  1028.9  1.1  729  302  -6.9      неравномерный
сухой снег
100% 
06 22.02.15 130 (ЮВ) 20000 м    ясно 
-3.5 -7.1 76 -7  1029  0.8  729  298  -6.9         
09 22.02.15 120 (ЮВ) 20000 м    ясно 
-0.7 -5.9 68 -4  1028.3  0.1  729  295           
12 22.02.15 130 (ЮВ) 20000 м    ясно 
+0.7 -5.2 65 -3  1027.2  -0.7  728  293           
15 22.02.15 130 (ЮВ) 20000 м    ясно 
-2.1 -6.6 71 -5  1028.2  0.3  729  297    +1.1       
18 22.02.15 150 (ЮВ) 20000 м    ясно 
-2.3 -5.8 77 -6  1028  -0.2  729  297           
21 22.02.15 140 (ЮВ) 6{12}  20000 м    ясно 
-2.9 -6.3 77 -7  1027.7  -0.5  728  297           
00 23.02.15 160 (Ю) 8-10{11}  20000 м    ясно 
-2.5 -5.1 82 -7  1026.8  -0.7  728  296           
03 23.02.15 160 (Ю) 20000 м    ясно 
-5 -6.1 92 -9  1028.3  0.9  728  300  -5.2      мокрый или
старый снег
50-90% 
06 23.02.15 120 (ЮВ) 8-10{11}  10 км    4/4 100 м 
[St]
-3.6 -4.7 92 -9  1028.1  0.1  728  298  -5.4         
09 23.02.15 130 (ЮВ) 7{10}  20000 м    ясно 
+1.5 -3.3 70 -2  1026.6  -0.3  728  292           
12 23.02.15 120 (ЮВ) 8-11{14}  20000 м    ясно 
+4.9 -3.2 56 +2  1024.4  -1.4  727  288           
15 23.02.15 120 (ЮВ) 20000 м    ясно 
+1.8 -5.4 59 -2  1024.5  -0.5  727  291          замёрзшая 
18 23.02.15 120 (ЮВ) 5{12}  20000 м    ясно 
+0.2 -3.3 77 -3  1024.8  0.1  727  293           
21 23.02.15 130 (ЮВ) 20000 м    ясно 
+0 -2.6 83 -3  1024.6  -0.2  727  293           
00 24.02.15 120 (ЮВ) 9-12{12}  20000 м    ясно 
-2 -4.8 81 -7  1024.7  -0.3  726  295           
03 24.02.15 130 (ЮВ) 7{12}  20000 м    ясно 
-2.7 -6.8 73 -7  1023.8  -1  726  296  -3         
06 24.02.15 110 (В) 7{16}  20000 м    ясно 
+1.8 -6.7 53 -2  1021.7  -1  725  291           
09 24.02.15 120 (ЮВ) 9-12{15}  20000 м    ясно 
+5 -3.3 55 +2  1019.8  -1.2  724  287           
12 24.02.15 110 (В) 14-18{18}  20000 м    1/0 средняя 
[Ac trans]
+4.6 -2.3 61 1017.4  -2.3  722  286           
15 24.02.15 110 (В) 12-16  20000 м    3/0 средняя 
[Ac trans]
-0.7 -3.3 83 -6  1019.4  0.9  723  292    +6.7       
18 24.02.15 110 (В) 10-14{16}  20000 м    3/0 средняя 
[Ac trans]
-1.2 -2.3 92 -6  1019.3  -0.2  723  293           
21 24.02.15 120 (ЮВ) 6{14}  2000 м  дымка  10/10 180 м 
[St]
-2.1 -2.9 94 -6  1018.4  -1  722  293           
00 25.02.15 120 (ЮВ) 8-12{12}  0500 м  переохл. туман [диам. изморози 2 мм]  ?/?  
-2.9 -3.6 95 -8  1018.3  -0.2  722  294           
03 25.02.15 130 (ЮВ) 11  4000 м  дымка{туман}  10/10 100 м 
[St]
-2.4 -3.1 95 -8  1018  -0.2  721  294  -2.9         
06 25.02.15 130 (ЮВ) 10-13{19}  10 км  {туман}  10/6 180 м средняя 
[St|Ac und]
-0.8 -2 91 -6  1019.8  723  292           
09 25.02.15 120 (ЮВ) 8-10{14}  20000 м    8/4 300 м верхняя 
[St|Ci fib]
+2.7 -0.7 78 -1  1018.8  -0.2  723  288           
12 25.02.15 110 (В) 12-15{15}  20000 м    9/6 240 м средняя 
[St|Ac trans]
+0.8 -1.4 85 -4  1019.1  723  290           
15 25.02.15 120 (ЮВ) 6{15}  20000 м    4/0 средняя, верхняя 
[Ac trans|Ci sp]
+1.9 -0.9 82 -1  1019.9  723  290    +4       
18 25.02.15 120 (ЮВ) 10 км    10/10 400 м 
[St]
+0.9 -0.3 92 -2  1020.7  0.6  724  291           
03 26.02.15 140 (ЮВ) 7{10}  2500 м  дымка{туман}  10/10 60 м 
[St]
-0 -0.6 96 -4  1024.6  727  293  -0.5         
09 26.02.15 150 (ЮВ) 20000 м    3/0 средняя 
[Ac trans]
+5.8 +0.5 69 +4  1026.3  1.8  729  287           
12 26.02.15 110 (В) 20000 м    3/0 верхняя 
[Ci fib]
+9.1 +1.3 58 +8  1026  0.3  729  284           
15 26.02.15 090 (В) 20000 м    3/0 средняя 
[Ac trans]
+3.6 +0.9 83 +2  1028.6  1.4  730  290    +9.4       
18 26.02.15 140 (ЮВ) 20000 м    4/0 средняя 
[Ac trans]
+2.5 +0.1 84 +1  1029.6  0.7  730  292           
21 26.02.15 190 (Ю) 20000 м    3/0 средняя 
[Ac trans]
+3.1 +0.1 81 +2  1029.4  730  291           
00 27.02.15 120 (ЮВ) 20000 м    ясно 
+0.2 -1.3 90 -2  1029.9  -0.2  730  294           
03 27.02.15 170 (Ю) 20000 м    3/0 средняя 
[Ac trans]
+2 -0.7 82 +1  1029  -0.5  730  292  +0.1         
06 27.02.15 140 (ЮВ) 20000 м    8/0 средняя, верхняя 
[Ac trans|Ci fib]
+6.2 +1.1 70 +6  1027.2  -0.8  729  287           
09 27.02.15 090 (В) 20000 м    6/0 верхняя 
[Ci fib]
+9.2 +3.3 67 +8  1025  -1.5  728  283           
12 27.02.15 070 (В) 20000 м    8/0 верхняя 
[Ci fib]
+8.9 +3.6 69 +7  1023.2  -1.7  727  283           
15 27.02.15 110 (В) 10 км    6/1 300 м верхняя 
[St|Ci fib]
+2.5 +0.7 88 -1  1022.9  -1.5  726  290    +11       
18 27.02.15 110 (В) 0200 м  туман  ?/?  
+1.2 +0.6 96 -2  1022  -1.2  725  291           
21 27.02.15 110 (В) 9-12{12}  0300 м  туман  ?/?  
+1.8 +1.1 95 -2  1018.8  -2.9  723  289           
00 28.02.15 110 (В) 8-11{15}  0300 м  туман  ?/?  
+0.6 -0 96 -4  1016.7  -2.2  721  290           
03 28.02.15 110 (В) 7{13}  1800 м  дымка{туман}  10/10 60 м 
[St]
+0.9 +0.3 96 -3  1015  -1.5  720  289  +0.4         
06 28.02.15 110 (В) 8-10{11}  4000 м  дымка{туман}  10/10 150 м 
[St]
+1.6 +0.9 95 -2  1013.9  -1  719  288           
09 28.02.15 110 (В) 5{10}  10 км    10/10 240 м 
[St]
+2.9 +0.8 86 1013.1  -0.5  719  286           
12 28.02.15 090 (В) 20000 м    10/8 450 м верхняя 
[Sc|Ci fib]
+4.5 +0.6 76 +3  1012.5  -0.2  719  285           
15 28.02.15 110 (В) 20000 м    8/6 500 м верхняя 
[Sc|Ci fib]
+2.4 -0 84 +2  1013.3  0.3  719  287    +4.7       
18 28.02.15 150 (ЮВ) 0600 м  туман  10/6 60 м верхняя 
[St|Cs]
+1.4 +0.6 94 +2  1014.1  0.5  719  288           
21 28.02.15 150 (ЮВ) 20000 м  {туман}  8/0 средняя 
[Ac trans]
+0.7 +0 95 -1  1013.7  -0.5  719  289           
00 01.03.15 210 (ЮЗ) 20000 м  {туман}  6/0 средняя 
[Ac trans]
+1.5 -0.3 88 +1  1012.8  -0.7  718  288           
03 01.03.15 270 (З) 20000 м    6/0 средняя 
[Ac As]
+4.8 +1.5 79 +6  1013.1  719  284  +0         
06 01.03.15 250 (З) 20000 м    10/5 600 м средняя 
[Sc|Ac und]
+6.6 +3.9 83 +6  1014.3  1.5  720  283           
Время (UTC), дата Ветер
(°,м/с) 
Видим.   Явления Облачность Т
(°С)
Тd
(°С)
f(%) Тe
(°С)
Pmin
(гПа)
dP
(гПа)
Po
(мм)
O2
(г/м3)
Тmin Tmax R s Состояние
почвы